Orbital Elements at Epoch 2459200.5 (2020-Dec-17.0) TDB
Reference: JPL 13 (heliocentric ecliptic J2000)
Element | Value | Uncertainty (1-sigma) | Units |
e | .1597820892896441 | 5.0194e-08 | |
a | 2.349194046779896 | 1.282e-08 | au |
q | 1.97383491383861 | 1.1893e-07 | au |
i | 2.669723147989677 | 5.4167e-06 | deg |
node | 32.47179905594054 | 0.00011928 | deg |
peri | 154.8335359388749 | 0.00012074 | deg |
M | 263.7931145939398 | 2.0692e-05 | deg |
tp | 2459551.963652944670 (2021-Dec-03.46365294) | 7.7363e-05 | TDB |
period | 1315.154466606516 3.60 | 1.0765e-05 2.947e-08 | d yr |
n | .2737321045860913 | 2.2406e-09 | deg/d |
Q | 2.724553179721181 | 1.4868e-08 | au |
|
| | Orbit Determination Parameters
Additional Information
|